Location: Paddlesworth
(51.1000°N, 1.1333°E)
Time: 09:02:56
(UTC+00:00)

USA 308 - Pass Details

Date: 11 May 2021
Orbit: 568 x 576 km, 54.0° (Epoch: 10 May)

Event Time Altitude Azimuth Distance (km) Brightness Sun altitude
Rises 21:19:52 0° 293° (WNW) 2,786 7.5 -13.2°
Reaches altitude 10° 21:22:09 10° 289° (WNW) 1,886 6.4 -13.4°
Maximum altitude 21:26:21 55° 211° (SSW) 694 3.1 -13.8°
Enters shadow 21:28:44 24° 143° (SE) 1,215 3.9 -14.0°
